Wind_Speed
12 12 11 11 11 11 9 10 10 9 9 9 9 9 11 16 22 26 31 31 33 33 32 30 25 24 22 18 14 9 8 11 15 14 14 17 19 21 25 31 37 43 46 44 31
13 14 12 13 14 14 13 12 12 11 10 10 11 12 11 11 11 15 21 27 32 35 35 32 30 26 25 21 12 10 8 8 11 6 14 15 18 19 24 30 36 40 45 45 35
13 13 14 12 14 15 15 15 14 13 12 11 11 11 11 12 14 14 15 18 24 32 36 36 33 30 27 25 16 16 13 10 9 23 15 15 15 17 21 28 33 37 44 45 41
13 14 15 12 12 13 14 15 14 14 14 14 13 13 12 13 14 15 15 15 17 22 31 36 36 35 32 28 24 33 23 20 21 22 20 17 16 19 19 25 28 33 42 45 43
16 16 17 16 16 18 18 18 18 18 18 18 17 17 17 17 17 16 15 16 17 18 19 28 37 39 37 32 31 30 23 20 12 19 19 17 15 14 15 20 24 30 36 43 43
19 20 19 18 20 22 24 24 24 24 23 23 23 22 22 22 21 20 20 20 20 21 20 21 25 39 40 37 34 36 30 28 24 28 26 23 11 9 12 16 20 25 31 38 41
22 23 23 23 24 26 27 28 29 30 30 30 30 30 31 30 31 29 28 26 24 24 24 23 22 24 40 42 39 37 37 32 33 30 24 22 18 10 10 11 15 20 27 33 39
26 27 29 30 31 32 33 34 35 34 34 34 34 34 34 34 33 32 31 31 31 29 29 28 25 25 26 38 43 39 37 36 34 33 27 24 13 16 8 10 11 17 20 28 34
31 32 33 33 34 35 37 38 39 40 39 39 39 39 39 37 36 35 34 34 34 35 34 32 29 28 27 27 34 39 37 29 31 35 33 28 21 18 5 13 9 14 21 23 27
33 34 35 35 37 38 40 41 41 41 40 41 41 40 41 41 39 39 38 37 37 38 37 35 34 32 32 30 26 28 37 38 32 34 35 31 25 16 7 17 7 7 19 22 21
39 39 39 40 40 41 41 42 42 42 40 39 39 39 40 40 42 41 41 41 39 37 36 36 36 36 36 36 30 40 41 40 36 42 36 33 31 18 19 18 10 4 17 17 18
39 39 39 39 39 39 41 40 39 38 37 35 34 32 31 32 35 36 34 34 35 36 37 36 38 38 39 39 41 43 39 49 35 39 43 39 35 27 26 22 13 7 7 17 15
39 40 40 41 41 41 41 38 36 35 34 32 31 31 30 28 29 30 30 31 32 34 34 35 38 40 42 43 45 47 49 48 49 36 48 43 36 34 33 29 18 7 8 13 9
37 37 37 37 38 37 36 34 31 29 27 25 27 28 29 29 28 27 28 27 27 30 31 32 35 38 41 44 47 50 51 49 63 47 50 49 43 44 38 29 21 14 17 8 5
34 36 36 33 33 32 34 30 26 21 19 17 19 20 21 22 22 22 23 24 23 23 24 25 30 31 35 41 48 52 51 52 51 59 60 54 50 49 40 32 34 24 24 15 11
33 34 34 32 30 30 30 27 23 17 13 13 14 16 17 18 20 18 17 18 20 22 25 27 29 32 34 36 41 49 51 56 54 52 61 60 57 55 49 42 39 33 35 21 10
33 34 32 31 29 28 27 23 19 14 10 6 6 10 13 15 16 18 22 24 25 26 26 26 29 32 38 41 40 43 51 55 56 58 58 62 61 58 54 47 44 35 37 29 24
33 33 33 30 28 27 25 21 17 12 7 8 11 13 15 18 20 23 25 26 26 28 28 28 27 28 32 37 47 44 45 53 59 60 57 60 69 56 57 52 49 45 38 29 30
32 35 32 29 27 24 20 14 14 14 13 13 14 18 21 23 25 28 32 33 33 32 33 33 33 32 33 36 38 46 50 50 51 62 60 58 63 62 58 58 51 49 42 32 32
32 34 31 26 23 16 12 11 12 13 16 18 20 25 27 28 35 36 38 37 38 37 35 33 33 31 34 36 40 39 48 52 54 58 61 57 48 51 52 59 58 52 46 39 40
33 32 29 24 19 11 8 8 10 12 16 21 26 28 33 36 38 40 40 36 40 39 35 31 31 29 32 31 33 36 45 54 57 57 62 62 50 56 68 36 62 56 53 47 39
32 32 28 24 20 19 15 13 13 15 20 23 25 29 32 35 39 43 41 37 41 36 33 33 31 30 31 31 32 35 40 48 53 61 59 68 71 52 71 61 64 57 57 55 42
31 32 31 27 24 21 23 19 19 20 23 27 23 25 28 32 34 32 32 30 32 33 33 30 32 30 31 30 31 34 37 34 43 56 73 64 69 70 66 71 71 52 57 51 50
35 31 32 30 29 25 25 27 24 23 25 26 24 24 29 33 33 29 30 27 27 25 29 29 29 27 28 28 29 32 32 35 41 53 70 65 70 76 68 70 65 57 52 53 57
38 32 32 32 30 29 26 29 28 25 28 28 27 30 29 36 38 29 28 22 23 26 26 24 22 24 25 25 27 26 19 15 12 48 61 69 71 76 70 72 66 51 48 39 38
34 32 34 33 33 31 30 30 30 30 25 31 30 31 31 36 37 28 22 14 9 10 12 18 19 27 26 25 27 24 23 34 35 40 51 65 72 67 73 70 76 70 44 66 36
36 33 33 33 34 31 31 30 33 32 32 31 30 32 33 36 34 25 19 16 15 15 17 22 26 28 32 31 29 18 14 15 31 41 45 64 70 27 70 78 77 83 71 62 76
Wind_Direction
234 238 241 250 244 245 249 250 247 254 253 256 252 251 248 243 238 237 238 234 234 237 239 239 237 232 237 230 236 251 262 295 322 321 308 324 330 357 359 2 5 8 16 15 19
244 236 246 249 245 244 240 240 241 240 231 236 243 247 247 243 240 233 234 234 234 234 235 236 235 236 234 237 233 235 257 287 320 245 270 309 320 348 357 6 6 9 16 14 20
243 247 249 254 242 241 242 238 236 225 221 224 229 230 235 241 247 249 242 239 232 232 232 232 233 232 233 234 222 211 215 203 77 40 306 308 305 336 351 4 7 10 17 15 22
251 251 255 257 243 237 236 238 236 236 238 237 236 236 236 240 241 241 245 248 249 237 231 229 228 231 231 229 213 218 216 218 232 270 287 288 285 314 336 357 11 10 16 17 21
261 261 257 259 258 253 250 249 248 249 248 248 246 247 248 249 254 257 256 253 254 258 251 230 226 224 230 227 223 222 218 219 234 267 266 268 283 304 325 353 6 11 14 17 20
269 269 268 265 267 265 262 261 260 258 259 262 261 256 257 256 260 264 266 267 264 259 256 254 231 224 223 226 223 223 226 220 204 229 237 255 275 306 318 349 354 12 14 17 20
267 266 264 263 265 267 266 264 262 264 266 266 265 263 264 264 264 261 263 263 265 263 262 254 248 234 223 223 225 223 223 223 221 232 240 249 259 298 306 337 349 9 13 17 16
269 271 271 269 269 268 267 267 266 266 265 265 265 263 265 265 265 265 263 260 258 260 259 255 248 241 234 226 224 223 223 224 227 234 232 233 262 268 315 329 346 357 3 14 13
275 276 275 274 275 275 273 271 270 271 271 270 269 268 266 264 265 263 264 262 261 257 258 252 246 238 235 237 225 226 226 223 221 229 229 230 221 237 295 312 333 358 353 4 14
279 280 280 279 279 279 279 279 276 275 273 272 269 268 267 265 265 264 264 262 260 259 256 249 243 238 231 230 221 197 232 223 227 230 229 225 222 207 220 262 291 341 314 334 8
283 284 284 284 281 282 283 282 282 279 279 274 272 271 268 264 264 264 264 260 259 256 251 249 241 236 234 229 218 207 216 212 225 233 218 216 212 188 226 221 236 165 294 317 349
285 287 288 287 288 288 289 289 285 283 281 275 269 267 266 261 259 262 260 256 255 254 252 249 241 237 237 232 221 210 205 210 211 218 212 211 207 202 216 210 207 201 274 287 308
289 290 291 291 295 295 295 294 289 284 282 275 263 262 264 259 258 257 257 255 254 252 250 248 246 242 237 234 230 221 217 212 211 209 208 207 202 198 222 211 189 199 261 260 320
294 295 296 298 300 300 298 296 294 290 280 271 264 260 258 259 257 254 253 251 247 245 243 245 245 244 239 230 229 227 221 216 218 219 214 209 199 200 205 208 221 220 231 228 299
298 299 300 304 303 300 299 298 296 288 277 268 262 258 255 252 245 236 231 234 241 243 242 240 239 240 241 236 230 229 223 219 221 221 220 213 204 203 206 209 222 201 227 213 244
299 300 305 304 304 302 299 299 293 280 264 262 255 249 242 231 234 240 250 256 258 261 263 258 248 243 238 238 236 229 226 222 220 220 219 216 211 207 208 210 212 209 221 219 211
298 302 304 305 307 301 298 294 287 260 254 258 244 229 230 238 247 257 264 268 270 269 263 265 260 253 244 241 238 234 228 224 221 220 217 216 215 210 215 215 214 202 219 222 202
299 301 307 309 305 301 295 288 278 248 249 255 247 249 257 264 269 268 269 275 278 278 277 273 268 255 249 243 236 236 234 228 222 221 218 212 217 211 214 213 213 212 217 218 214
299 303 308 307 306 300 297 274 264 243 254 264 265 267 269 272 272 271 277 281 282 285 284 278 269 261 253 249 243 238 232 232 227 224 219 217 215 215 213 215 212 212 219 215 215
299 302 307 306 305 291 285 268 252 250 259 268 271 274 276 278 280 281 281 282 282 282 282 279 268 264 257 251 247 247 236 227 226 224 220 217 218 212 215 225 214 215 216 210 221
297 299 301 304 299 264 264 261 268 277 282 284 283 282 284 284 282 279 278 278 277 275 272 275 269 264 262 249 245 243 244 230 222 223 218 213 198 212 202 213 206 216 216 214 220
295 295 295 294 293 256 251 260 269 276 300 302 298 300 298 297 293 289 284 277 272 270 269 269 266 266 259 247 245 248 248 236 226 219 219 215 212 209 211 214 202 213 212 213 214
287 292 291 286 287 275 251 255 270 281 290 298 297 301 309 318 305 289 282 274 267 265 262 264 267 264 254 251 251 254 259 243 222 215 215 213 211 216 210 208 206 209 209 214 215
289 285 286 285 281 279 258 256 263 280 289 293 291 299 314 328 317 296 298 281 269 265 262 264 263 258 254 257 263 266 265 253 234 216 216 210 209 216 213 205 208 202 208 212 219
283 279 280 284 283 276 269 256 262 266 282 291 285 297 305 324 330 307 302 285 278 268 264 259 256 257 258 262 274 266 232 210 236 221 212 209 214 214 216 209 203 184 201 207 227
277 283 276 281 284 277 266 260 257 264 273 288 287 291 304 320 324 315 307 296 283 269 264 268 270 271 272 280 266 218 181 177 201 213 210 209 211 215 217 213 207 193 180 193 205
269 275 274 280 281 279 272 260 254 261 271 285 289 288 298 315 323 315 294 293 288 285 278 278 284 281 276 270 218 169 178 257 205 195 203 208 204 224 221 213 211 207 201 198 200
Height
10939 10940 10941 10941 10942 10942 10943 10943 10943 10943 10943 10942 10943 10944 10944 10945 10947 10949 10952 10955 10957 10960 10963 10968 10973 10977 10978 10981 10984 10987 10989 10989 10987 10986 10981 10981 10979 10974 10970 10966 10960 10954 10944 10935 10926
10939 10939 10939 10939 10939 10940 10941 10941 10941 10941 10941 10941 10941 10942 10942 10943 10943 10944 10946 10948 10951 10954 10958 10964 10969 10973 10976 10978 10984 10986 10987 10988 10982 10988 10983 10981 10979 10975 10972 10967 10962 10957 10947 10939 10930
10937 10937 10937 10937 10937 10938 10938 10938 10938 10938 10939 10939 10939 10940 10940 10941 10941 10941 10942 10943 10945 10948 10953 10959 10965 10968 10971 10976 10982 10983 10986 10988 10984 10985 10982 10981 10980 10977 10974 10970 10964 10958 10952 10944 10933
10935 10935 10935 10935 10935 10935 10935 10936 10936 10936 10936 10937 10937 10938 10938 10938 10939 10939 10940 10941 10942 10943 10947 10953 10960 10963 10966 10972 10981 10986 10982 10982 10983 10983 10983 10983 10981 10978 10976 10972 10968 10962 10956 10949 10940
10933 10933 10933 10933 10933 10933 10933 10933 10933 10933 10933 10933 10934 10935 10936 10936 10936 10936 10938 10939 10940 10940 10943 10947 10952 10958 10960 10965 10972 10974 10977 10979 10982 10983 10982 10984 10982 10981 10977 10974 10970 10965 10960 10954 10947
10930 10930 10930 10930 10930 10930 10929 10929 10929 10929 10929 10930 10931 10931 10932 10932 10932 10933 10934 10935 10936 10937 10939 10941 10946 10950 10955 10960 10964 10968 10970 10974 10975 10977 10979 10981 10981 10980 10977 10975 10972 10968 10963 10959 10953
10927 10926 10926 10926 10925 10924 10924 10924 10924 10923 10924 10924 10925 10925 10925 10926 10927 10928 10929 10930 10930 10932 10934 10936 10940 10944 10948 10952 10955 10961 10965 10969 10973 10975 10977 10979 10979 10978 10978 10976 10973 10970 10966 10962 10957
10922 10921 10921 10920 10920 10919 10918 10917 10916 10917 10917 10917 10917 10918 10918 10918 10919 10921 10922 10923 10924 10925 10927 10929 10934 10938 10942 10945 10950 10955 10961 10965 10968 10971 10974 10975 10976 10977 10978 10977 10974 10972 10970 10965 10961
10917 10916 10914 10914 10913 10911 10910 10909 10909 10908 10908 10908 10908 10909 10910 10910 10911 10912 10913 10914 10915 10916 10918 10922 10927 10931 10935 10939 10946 10954 10957 10960 10963 10964 10967 10971 10972 10976 10976 10977 10976 10973 10973 10969 10965
10910 10909 10908 10907 10905 10903 10901 10900 10899 10898 10898 10898 10898 10899 10899 10900 10901 10902 10904 10905 10906 10907 10909 10913 10919 10923 10927 10932 10939 10946 10951 10954 10958 10959 10963 10966 10970 10972 10974 10977 10977 10975 10975 10973 10969
10903 10902 10900 10898 10895 10894 10893 10891 10889 10887 10886 10886 10887 10888 10888 10889 10890 10891 10893 10895 10897 10898 10900 10904 10909 10914 10918 10923 10930 10936 10938 10944 10946 10949 10955 10961 10967 10968 10973 10976 10977 10975 10976 10974 10973
10895 10894 10892 10889 10887 10885 10883 10881 10878 10876 10875 10875 10876 10877 10877 10878 10879 10881 10883 10886 10888 10889 10891 10894 10899 10905 10909 10913 10918 10923 10927 10931 10934 10934 10948 10956 10961 10966 10969 10970 10974 10975 10976 10976 10976
10888 10886 10883 10881 10879 10875 10873 10870 10868 10866 10866 10865 10866 10868 10869 10870 10871 10873 10875 10876 10878 10880 10883 10885 10889 10894 10897 10902 10907 10914 10919 10924 10926 10931 10940 10948 10955 10962 10964 10968 10972 10973 10975 10975 10974
10880 10878 10875 10874 10870 10866 10863 10861 10859 10857 10856 10856 10856 10858 10860 10862 10864 10865 10867 10868 10870 10872 10874 10877 10879 10882 10886 10891 10895 10900 10909 10917 10922 10927 10934 10941 10949 10955 10959 10963 10968 10971 10975 10975 10975
10874 10871 10868 10865 10863 10859 10855 10853 10851 10850 10849 10849 10850 10851 10853 10855 10857 10858 10860 10862 10864 10866 10868 10871 10872 10874 10876 10880 10885 10888 10900 10905 10910 10916 10925 10934 10943 10950 10955 10959 10964 10969 10973 10973 10974
10867 10864 10861 10859 10856 10852 10848 10846 10845 10845 10844 10845 10845 10847 10849 10850 10852 10855 10857 10858 10859 10861 10862 10862 10864 10865 10867 10870 10873 10881 10887 10893 10900 10906 10914 10924 10933 10942 10948 10952 10957 10962 10967 10971 10972
10860 10857 10854 10852 10849 10845 10842 10841 10840 10840 10840 10841 10843 10845 10847 10848 10849 10850 10851 10851 10853 10853 10854 10854 10855 10856 10858 10860 10863 10869 10874 10880 10889 10893 10900 10916 10923 10936 10942 10949 10954 10957 10961 10967 10971
10853 10850 10848 10845 10842 10839 10836 10835 10835 10836 10837 10838 10840 10842 10842 10843 10844 10844 10844 10844 10845 10844 10844 10844 10845 10846 10845 10848 10852 10857 10863 10868 10876 10884 10893 10903 10912 10931 10936 10944 10950 10956 10958 10964 10968
10847 10843 10841 10838 10836 10832 10830 10830 10831 10832 10833 10835 10836 10837 10837 10837 10837 10837 10836 10836 10835 10834 10833 10833 10833 10834 10837 10838 10840 10844 10850 10858 10870 10873 10884 10893 10907 10921 10929 10936 10943 10952 10955 10958 10962
10840 10837 10835 10833 10830 10828 10827 10827 10827 10828 10829 10830 10831 10830 10830 10831 10827 10827 10826 10827 10825 10824 10822 10821 10822 10824 10825 10827 10829 10831 10833 10843 10849 10858 10874 10889 10906 10913 10923 10929 10936 10942 10950 10954 10959
10832 10830 10828 10827 10825 10826 10825 10824 10824 10825 10825 10825 10824 10824 10822 10820 10817 10815 10814 10816 10812 10811 10811 10811 10811 10813 10812 10815 10816 10816 10817 10824 10835 10844 10856 10874 10880 10891 10896 10900 10918 10933 10943 10949 10955
10825 10823 10822 10821 10821 10821 10821 10820 10820 10819 10818 10818 10817 10815 10813 10810 10804 10799 10799 10801 10798 10799 10799 10799 10800 10801 10801 10803 10803 10804 10802 10809 10826 10834 10846 10858 10871 10875 10886 10894 10910 10922 10933 10940 10947
10817 10816 10814 10814 10814 10814 10814 10814 10814 10813 10812 10810 10810 10807 10805 10801 10793 10788 10786 10786 10784 10786 10786 10789 10789 10790 10791 10792 10793 10794 10796 10805 10808 10821 10825 10843 10854 10858 10877 10890 10903 10913 10922 10930 10937
10808 10809 10806 10805 10806 10806 10807 10807 10808 10806 10805 10804 10802 10800 10797 10793 10785 10780 10777 10776 10775 10777 10775 10778 10778 10780 10781 10783 10786 10786 10786 10791 10796 10803 10812 10831 10842 10849 10866 10883 10895 10909 10917 10925 10930
10799 10800 10799 10797 10796 10798 10798 10798 10799 10800 10797 10797 10795 10793 10790 10785 10780 10774 10770 10767 10767 10765 10766 10768 10772 10769 10771 10777 10774 10775 10777 10778 10779 10786 10802 10819 10834 10845 10859 10874 10888 10900 10911 10922 10924
10788 10789 10790 10789 10787 10788 10789 10790 10790 10790 10791 10788 10787 10784 10783 10779 10773 10768 10764 10762 10761 10760 10761 10762 10764 10763 10766 10767 10760 10764 10767 10767 10769 10773 10790 10808 10820 10842 10845 10857 10875 10885 10894 10901 10901
10778 10779 10779 10780 10779 10779 10779 10781 10781 10782 10781 10781 10780 10777 10774 10772 10767 10762 10760 10758 10758 10756 10756 10756 10755 10755 10754 10756 10758 10756 10763 10762 10765 10776 10784 10792 10815 10834 10830 10844 10858 10870 10873 10881 10890